Regional Weather Roundup
Issued by NWS

Home | Current Version | Previous Version | Text Only | Print | Product List | Glossary On
Versions: 1 2 3 4 5 6 7 8 9 10 11 12 13 14 15 16 17 18 19 20 21 22 23 24 25 26 27 28 29 30 31 32 33 34 35 36 37 38 39 40 41 42 43 44 45 46 47 48 49 50
000
ASUS43 KLMK 191710
RWRKY
KENTUCKY REGIONAL WEATHER ROUNDUP
NATIONAL WEATHER SERVICE LOUISVILLE KY
100 PM EDT THU APR 19 2018

NOTE "FAIR" INDICATES FEW OR NO CLOUDS BELOW 12,000 FEET
WITH NO SIGNIFICANT WEATHER AND/OR OBSTRUCTIONS TO VISIBILITY.

KYZ001>023-026-027-061>063-070>075-191800-
WESTERN AND SOUTH CENTRAL KENTUCKY

CITY           SKY/WX    TMP DP  RH WIND       PRES   REMARKS
PADUCAH        PTSUNNY   46  28  49 N10G24    30.35R
HENDERSON      CLOUDY    42  31  64 NW12      30.35R
OWENSBORO      CLOUDY    43  31  62 NW10      30.33R
HOPKINSVILLE   CLOUDY    44  27  51 N9        30.32R
BOWLING GREEN  PTSUNNY   48  30  49 NW6       30.30R
GLASGOW        CLOUDY    45  29  54 NW6       30.28R
$$

KYZ024-025-028>034-038-045-046-053-191800-
NORTH CENTRAL KENTUCKY

CITY           SKY/WX    TMP DP  RH WIND       PRES   REMARKS
LOUISVILLE/SDF CLOUDY    45  32  60 N14       30.28R
LOUISVILLE/LOU CLOUDY    46  34  62 NW8       30.28R
FORT KNOX      CLOUDY    44  30  58 NW8       30.28
$$

KYZ035>037-039>044-047>052-055>060-089>105-191800-
NORTHEAST KENTUCKY

CITY           SKY/WX    TMP DP  RH WIND       PRES   REMARKS
LEXINGTON      CLOUDY    42  31  64 NW13G22   30.24R
COVINGTON      CLOUDY    42  32  67 NW12      30.23R
FRANKFORT      CLOUDY    45  31  58 NW10G18   30.24R
$$

KYZ054-064>069-076>088-106>120-191800-
SOUTHEAST KENTUCKY

CITY           SKY/WX    TMP DP  RH WIND       PRES   REMARKS
JACKSON        CLOUDY    40  28  62 W7        30.19R
LONDON         CLOUDY    43  28  55 NW12      30.22R
SOMERSET       CLOUDY    43  28  56 N7        30.26R
MIDDLESBORO    CLOUDY    46  31  54 NW12G17   30.20S
MONTICELLO     CLOUDY    44  29  55 N18G28    30.26R
$$




USA.gov is the U.S. government's official web portal to all federal, state and local government web resources and services.